Content
SEND FEEDBACK

Daily
Averages
Monthly
Summary
United States of America

EARTH CITY, MISSOURI


Home > North America > United States > Missouri
Elevation: 145 meters     Latitude: 38 46N     Longitude: 090 30W

WEATHER
 
SELECT A DAY
Number of Records: 203,416;   Date Range: 1/1/95 - 7/26/14
 
SHARE

PRINT THIS DATA

[ ← Previous Day ]
WEATHER ALMANAC - 24 JANUARY, 2013
[ Next Day → ]
[ °F ]   °C
Weather ElementAverageHighLow
Temperature-5.3 °C-2.2 °C (11:51 pm)-8.9 °C (6:51 am)
Dewpoint-14.9 °C-12.8 °C (11:51 pm)-18 °C (8:51 am)
Humidity48.1 %62 % (6:51 am)43 % (1:51 pm)
Barometer1032.5 hPa1037.6 hPa (9:51 am)1026.1 hPa (11:51 pm)
Wind Speed20.9 km/h29.6 km/h (7:51 pm)
Wind Gust38.9 km/h (1:51 am)
Weather ElementAverage
Visibility16.1 km
Wind DirectionESE (107 °)

Weather ElementTotal
Precipitation---
Heating Degree Days23.9 (Base 18.3)
Averaged from 23 records on 24 January, 2013
WEATHER CONDITIONS BREAKOUT
WIND DIRECTION BREAKOUT
WEATHER BY HOUR - 24 JANUARY, 2013
[ °F ]   °C
Local TimeTemperatureDewpointHumidityBarometerVisibilityWind DirectionWind SpeedGust SpeedPrecipitationEventsConditions
1:51 AM-4.4 °C-13.9 °C48 %1031.2 hPa16.1 kmNorth (10°)22.2 km/h38.9 km/hPartly Cloudy
2:51 AM-6.7 °C-15 °C52 %1032.2 hPa16.1 kmNorth (360°)27.8 km/h38.9 km/hPartly Cloudy
3:51 AM-7.2 °C-15.6 °C52 %1033.5 hPa16.1 kmNorth (10°)16.7 km/hScattered Clouds
4:51 AM-8.3 °C-15 °C59 %1034.2 hPa16.1 kmNorth (360°)16.7 km/hScattered Clouds
5:51 AM-8.3 °C-15 °C59 %1035.2 hPa16.1 kmNNE (20°)14.8 km/hMostly Cloudy
6:51 AM-8.9 °C-15 °C62 %1035.9 hPa16.1 kmNNE (30°)13 km/hMostly Cloudy
7:51 AM-8.3 °C-14.4 °C62 %1036.2 hPa16.1 kmNE (40°)13 km/hOvercast
8:51 AM-8 °C-18 °C45 %1035.6 hPa16.1 kmEast (80°)18.5 km/hOvercast
9:51 AM-7.8 °C-17.8 °C45 %1037.6 hPa16.1 kmENE (60°)22.2 km/hOvercast
10:51 AM-6.7 °C-17.2 °C44 %1037.6 hPa16.1 kmENE (70°)20.4 km/hOvercast
11:51 AM-5.6 °C-16.1 °C44 %1036.6 hPa16.1 kmEast (80°)16.7 km/hMostly Cloudy
12:51 PM-5 °C-15.6 °C44 %1034.9 hPa16.1 kmEast (80°)24.1 km/hMostly Cloudy
1:51 PM-3.9 °C-15 °C43 %1033.5 hPa16.1 kmESE (110°)24.1 km/hOvercast
2:51 PM-3.9 °C-14.4 °C45 %1033.2 hPa16.1 kmEast (100°)24.1 km/hOvercast
3:51 PM-3.9 °C-14.4 °C45 %1032.2 hPa16.1 kmEast (100°)24.1 km/hOvercast
4:51 PM-3.9 °C-15 °C43 %1031.5 hPa16.1 kmESE (120°)24.1 km/hMostly Cloudy
5:51 PM-3.3 °C-14.4 °C43 %1031.2 hPa16.1 kmESE (110°)20.4 km/hMostly Cloudy
6:51 PM-4 °C-14 °C46 %1028.8 hPa16.1 kmESE (110°)25.9 km/h35.2 km/hOvercast
7:51 PM-3.3 °C-13.9 °C44 %1029.8 hPa16.1 kmESE (110°)29.6 km/hOvercast
8:51 PM-3.3 °C-13.3 °C47 %1028.8 hPa16.1 kmESE (110°)24.1 km/hOvercast
9:51 PM-2.8 °C-13.3 °C45 %1028.8 hPa16.1 kmSE (140°)20.4 km/hOvercast
10:51 PM-2.8 °C-13.3 °C45 %1026.8 hPa16.1 kmSE (130°)20.4 km/hOvercast
11:51 PM-2.2 °C-12.8 °C45 %1026.1 hPa16.1 kmESE (120°)18.5 km/hOvercast
Hourly data recorded from KSTL, located 0 kilometers away from Earth City, Missouri







STORIES FROM OUR PARTNERS